TimePST,TemperatureF,Dew PointF,Humidity,Sea Level PressureIn,VisibilityMPH,Wind Direction,Wind SpeedMPH,Gust SpeedMPH,PrecipitationIn,Events,Conditions,WindDirDegrees,DateUTC
12:56 AM,33.1,25.0,72,30.36,10.0,North,5.8,-,N/A,,Clear,10,2013-01-14 08:56:00
1:56 AM,35.1,25.0,67,30.37,10.0,NNE,10.4,-,N/A,,Clear,30,2013-01-14 09:56:00
2:56 AM,36.0,23.0,59,30.38,10.0,NE,9.2,-,N/A,,Clear,50,2013-01-14 10:56:00
3:56 AM,35.1,21.9,59,30.38,10.0,NE,6.9,-,N/A,,Clear,40,2013-01-14 11:56:00
4:56 AM,37.0,21.9,54,30.37,10.0,ENE,8.1,-,N/A,,Clear,60,2013-01-14 12:56:00
5:56 AM,36.0,21.9,57,30.39,10.0,NE,6.9,-,N/A,,Clear,40,2013-01-14 13:56:00
6:56 AM,36.0,21.9,57,30.40,10.0,NE,3.5,-,N/A,,Clear,40,2013-01-14 14:56:00
7:56 AM,34.0,21.9,61,30.43,10.0,NE,4.6,-,N/A,,Clear,40,2013-01-14 15:56:00
8:56 AM,39.0,23.0,53,30.45,10.0,ENE,6.9,-,N/A,,Clear,70,2013-01-14 16:56:00
9:56 AM,43.0,24.1,47,30.47,10.0,ENE,3.5,-,N/A,,Clear,60,2013-01-14 17:56:00
11:56 AM,50.0,23.0,35,30.45,10.0,Variable,3.5,-,N/A,,Clear,0,2013-01-14 19:56:00
12:56 PM,46.9,30.0,52,30.44,10.0,NNW,9.2,-,N/A,,Clear,330,2013-01-14 20:56:00
1:56 PM,48.0,28.9,48,30.43,10.0,NW,6.9,-,N/A,,Clear,310,2013-01-14 21:56:00
2:56 PM,48.0,34.0,58,30.43,10.0,NW,6.9,-,N/A,,Clear,310,2013-01-14 22:56:00
3:56 PM,48.0,34.0,58,30.43,10.0,Calm,Calm,-,N/A,,Clear,0,2013-01-14 23:56:00
4:56 PM,46.0,33.1,61,30.43,10.0,NE,3.5,-,N/A,,Clear,40,2013-01-15 00:56:00
5:56 PM,39.9,30.9,70,30.43,10.0,NE,3.5,-,N/A,,Clear,40,2013-01-15 01:56:00
6:56 PM,36.0,28.0,73,30.43,10.0,Calm,Calm,-,N/A,,Clear,0,2013-01-15 02:56:00
7:56 PM,39.9,26.1,58,30.44,10.0,ENE,6.9,-,N/A,,Clear,60,2013-01-15 03:56:00
8:56 PM,41.0,25.0,53,30.44,10.0,ENE,6.9,-,N/A,,Clear,60,2013-01-15 04:56:00
9:56 PM,42.1,25.0,51,30.43,10.0,NE,6.9,-,N/A,,Clear,40,2013-01-15 05:56:00
10:56 PM,39.9,26.1,58,30.44,10.0,NNE,5.8,-,N/A,,Clear,30,2013-01-15 06:56:00
11:56 PM,41.0,26.1,55,30.45,10.0,NE,6.9,-,N/A,,Clear,50,2013-01-15 07:56:00